Time,TemperatureF,DewpointF,PressureIn,WindDirection,WindDirectionDegrees,WindSpeedMPH,WindSpeedGustMPH,Humidity,HourlyPrecipIn,Conditions,Clouds,dailyrainin,SoftwareType,DateUTC
2013-04-28 00:09:00,44.0,35.0,30.28,SE,134,0.0,0.0,71,0.00,,,0.00,weatherlink.com 1.10,2013-04-28 04:09:00,
2013-04-28 00:24:00,43.2,35.0,30.29,ESE,117,1.0,3.0,73,0.00,,,0.00,weatherlink.com 1.10,2013-04-28 04:24:00,
2013-04-28 00:40:00,42.5,35.0,30.29,SE,128,0.0,2.0,74,0.00,,,0.00,weatherlink.com 1.10,2013-04-28 04:40:00,
2013-04-28 00:55:00,42.2,35.0,30.29,SE,126,0.0,2.0,75,0.00,,,0.00,weatherlink.com 1.10,2013-04-28 04:55:00,
2013-04-28 01:10:00,41.6,34.0,30.29,SE,136,1.0,3.0,75,0.00,,,0.00,weatherlink.com 1.10,2013-04-28 05:10:00,
2013-04-28 01:25:00,41.2,34.0,30.28,ESE,117,0.0,1.0,76,0.00,,,0.00,weatherlink.com 1.10,2013-04-28 05:25:00,
2013-04-28 01:40:00,40.9,34.0,30.28,ESE,117,0.0,0.0,76,0.00,,,0.00,weatherlink.com 1.10,2013-04-28 05:40:00,
2013-04-28 01:55:00,40.2,34.0,30.28,ESE,117,0.0,0.0,77,0.00,,,0.00,weatherlink.com 1.10,2013-04-28 05:55:00,
2013-04-28 02:10:00,39.5,34.0,30.27,ESE,117,0.0,0.0,79,0.00,,,0.00,weatherlink.com 1.10,2013-04-28 06:10:00,
2013-04-28 02:25:00,38.9,33.0,30.27,ESE,117,0.0,0.0,79,0.00,,,0.00,weatherlink.com 1.10,2013-04-28 06:25:00,
2013-04-28 02:40:00,38.5,33.0,30.27,SE,132,0.0,2.0,81,0.00,,,0.00,weatherlink.com 1.10,2013-04-28 06:40:00,
2013-04-28 02:55:00,37.8,32.0,30.26,ESE,115,1.0,3.0,81,0.00,,,0.00,weatherlink.com 1.10,2013-04-28 06:55:00,
2013-04-28 03:10:00,37.2,32.0,30.26,ESE,121,1.0,2.0,82,0.00,,,0.00,weatherlink.com 1.10,2013-04-28 07:10:00,
2013-04-28 03:25:00,36.8,32.0,30.26,SE,130,0.0,2.0,83,0.00,,,0.00,weatherlink.com 1.10,2013-04-28 07:25:00,
2013-04-28 03:40:00,36.0,32.0,30.26,SE,130,0.0,0.0,84,0.00,,,0.00,weatherlink.com 1.10,2013-04-28 07:40:00,
2013-04-28 03:55:00,35.8,32.0,30.25,SE,130,0.0,0.0,85,0.00,,,0.00,weatherlink.com 1.10,2013-04-28 07:55:00,
2013-04-28 04:10:00,35.6,32.0,30.25,SE,130,0.0,0.0,85,0.00,,,0.00,weatherlink.com 1.10,2013-04-28 08:10:00,
2013-04-28 04:25:00,35.2,31.0,30.24,ESE,122,0.0,2.0,86,0.00,,,0.00,weatherlink.com 1.10,2013-04-28 08:25:00,
2013-04-28 04:40:00,35.1,31.0,30.25,ESE,122,0.0,0.0,85,0.00,,,0.00,weatherlink.com 1.10,2013-04-28 08:40:00,
2013-04-28 04:55:00,34.4,30.0,30.25,ESE,122,1.0,2.0,85,0.00,,,0.00,weatherlink.com 1.10,2013-04-28 08:55:00,
2013-04-28 05:10:00,33.7,30.0,30.25,ESE,122,0.0,1.0,87,0.00,,,0.00,weatherlink.com 1.10,2013-04-28 09:10:00,
2013-04-28 05:25:00,33.4,30.0,30.25,ESE,122,0.0,1.0,88,0.00,,,0.00,weatherlink.com 1.10,2013-04-28 09:25:00,
2013-04-28 05:40:00,33.2,30.0,30.25,ESE,122,0.0,1.0,88,0.00,,,0.00,weatherlink.com 1.10,2013-04-28 09:40:00,
2013-04-28 05:55:00,33.0,30.0,30.25,ESE,122,0.0,1.0,88,0.00,,,0.00,weatherlink.com 1.10,2013-04-28 09:55:00,
2013-04-28 06:10:00,32.7,30.0,30.25,ESE,122,0.0,0.0,89,0.00,,,0.00,weatherlink.com 1.10,2013-04-28 10:10:00,
2013-04-28 06:25:00,32.8,30.0,30.26,ESE,122,0.0,0.0,89,0.00,,,0.00,weatherlink.com 1.10,2013-04-28 10:25:00,
2013-04-28 06:40:00,32.7,30.0,30.27,ESE,122,0.0,0.0,89,0.00,,,0.00,weatherlink.com 1.10,2013-04-28 10:40:00,
2013-04-28 06:55:00,33.9,31.0,30.27,ESE,122,0.0,0.0,88,0.00,,,0.00,weatherlink.com 1.10,2013-04-28 10:55:00,
2013-04-28 07:10:00,35.9,32.0,30.27,ESE,122,0.0,0.0,84,0.00,,,0.00,weatherlink.com 1.10,2013-04-28 11:10:00,
2013-04-28 07:25:00,37.2,32.0,30.27,ESE,122,0.0,2.0,82,0.00,,,0.00,weatherlink.com 1.10,2013-04-28 11:25:00,
2013-04-28 07:40:00,39.7,33.0,30.27,ESE,122,0.0,0.0,78,0.00,,,0.00,weatherlink.com 1.10,2013-04-28 11:40:00,
2013-04-28 07:55:00,42.3,34.0,30.26,ESE,122,0.0,0.0,73,0.00,,,0.00,weatherlink.com 1.10,2013-04-28 11:55:00,
2013-04-28 08:11:00,44.4,34.0,30.26,ESE,122,0.0,0.0,67,0.00,,,0.00,weatherlink.com 1.10,2013-04-28 12:11:00,
2013-04-28 08:26:00,46.0,35.0,30.26,ESE,122,0.0,0.0,65,0.00,,,0.00,weatherlink.com 1.10,2013-04-28 12:26:00,
2013-04-28 08:41:00,48.9,35.0,30.26,ESE,122,0.0,0.0,59,0.00,,,0.00,weatherlink.com 1.10,2013-04-28 12:41:00,
2013-04-28 08:56:00,51.6,35.0,30.25,ESE,121,0.0,0.0,54,0.00,,,0.00,weatherlink.com 1.10,2013-04-28 12:56:00,
2013-04-28 09:11:00,53.9,35.0,30.25,ESE,121,0.0,0.0,49,0.00,,,0.00,weatherlink.com 1.10,2013-04-28 13:11:00,
2013-04-28 09:26:00,57.1,35.0,30.24,SSW,196,0.0,0.0,43,0.00,,,0.00,weatherlink.com 1.10,2013-04-28 13:26:00,
2013-04-28 09:41:00,59.4,34.0,30.24,SSW,213,0.0,3.0,39,0.00,,,0.00,weatherlink.com 1.10,2013-04-28 13:41:00,
2013-04-28 09:56:00,62.2,33.0,30.23,ESE,104,2.0,3.0,33,0.00,,,0.00,weatherlink.com 1.10,2013-04-28 13:56:00,
2013-04-28 10:11:00,63.4,32.0,30.23,South,188,2.0,4.0,31,0.00,,,0.00,weatherlink.com 1.10,2013-04-28 14:11:00,
2013-04-28 10:26:00,64.0,31.0,30.23,South,189,2.0,3.0,29,0.00,,,0.00,weatherlink.com 1.10,2013-04-28 14:26:00,
2013-04-28 10:41:00,64.0,31.0,30.23,ENE,64,1.0,5.0,29,0.00,,,0.00,weatherlink.com 1.10,2013-04-28 14:41:00,
2013-04-28 10:56:00,65.0,31.0,30.23,NE,42,2.0,5.0,28,0.00,,,0.00,weatherlink.com 1.10,2013-04-28 14:56:00,
2013-04-28 11:11:00,66.2,33.0,30.22,NW,311,0.0,3.0,29,0.00,,,0.00,weatherlink.com 1.10,2013-04-28 15:11:00,
2013-04-28 11:26:00,66.6,31.0,30.22,East,79,1.0,5.0,27,0.00,,,0.00,weatherlink.com 1.10,2013-04-28 15:26:00,
2013-04-28 11:41:00,67.4,32.0,30.21,WNW,283,0.0,4.0,27,0.00,,,0.00,weatherlink.com 1.10,2013-04-28 15:41:00,
2013-04-28 11:56:00,67.2,33.0,30.20,SSE,163,0.0,4.0,28,0.00,,,0.00,weatherlink.com 1.10,2013-04-28 15:56:00,
2013-04-28 12:11:00,66.7,35.0,30.20,SSW,200,2.0,6.0,31,0.00,,,0.00,weatherlink.com 1.10,2013-04-28 16:11:00,
2013-04-28 12:26:00,68.0,35.0,30.20,South,171,2.0,8.0,30,0.00,,,0.00,weatherlink.com 1.10,2013-04-28 16:26:00,
2013-04-28 12:42:00,68.6,36.0,30.19,SE,134,2.0,11.0,30,0.00,,,0.00,weatherlink.com 1.10,2013-04-28 16:42:00,
2013-04-28 12:57:00,69.0,37.0,30.19,East,88,5.0,11.0,31,0.00,,,0.00,weatherlink.com 1.10,2013-04-28 16:57:00,
2013-04-28 13:12:00,68.5,35.0,30.18,East,87,1.0,10.0,29,0.00,,,0.00,weatherlink.com 1.10,2013-04-28 17:12:00,
2013-04-28 13:27:00,68.3,36.0,30.17,South,175,6.0,10.0,30,0.00,,,0.00,weatherlink.com 1.10,2013-04-28 17:27:00,
2013-04-28 13:42:00,68.5,35.0,30.17,SSE,153,4.0,9.0,29,0.00,,,0.00,weatherlink.com 1.10,2013-04-28 17:42:00,
2013-04-28 13:57:00,68.9,36.0,30.16,SW,225,2.0,9.0,30,0.00,,,0.00,weatherlink.com 1.10,2013-04-28 17:57:00,
2013-04-28 14:12:00,69.8,37.0,30.16,SW,225,1.0,9.0,30,0.00,,,0.00,weatherlink.com 1.10,2013-04-28 18:12:00,
2013-04-28 14:27:00,68.9,35.0,30.16,SSE,150,4.0,9.0,29,0.00,,,0.00,weatherlink.com 1.10,2013-04-28 18:27:00,
2013-04-28 14:42:00,69.1,37.0,30.15,SW,222,5.0,9.0,31,0.00,,,0.00,weatherlink.com 1.10,2013-04-28 18:42:00,
2013-04-28 14:57:00,70.1,36.0,30.15,SSE,147,2.0,8.0,29,0.00,,,0.00,weatherlink.com 1.10,2013-04-28 18:57:00,
2013-04-28 15:12:00,70.4,37.0,30.14,SSW,203,1.0,7.0,29,0.00,,,0.00,weatherlink.com 1.10,2013-04-28 19:12:00,
2013-04-28 15:27:00,70.2,35.0,30.13,ESE,105,3.0,5.0,27,0.00,,,0.00,weatherlink.com 1.10,2013-04-28 19:27:00,
2013-04-28 15:42:00,69.6,36.0,30.13,South,191,2.0,7.0,29,0.00,,,0.00,weatherlink.com 1.10,2013-04-28 19:42:00,
2013-04-28 15:57:00,69.0,34.0,30.13,West,263,3.0,12.0,28,0.00,,,0.00,weatherlink.com 1.10,2013-04-28 19:57:00,
2013-04-28 16:12:00,68.0,35.0,30.13,East,96,3.0,11.0,30,0.00,,,0.00,weatherlink.com 1.10,2013-04-28 20:12:00,
2013-04-28 16:27:00,68.1,35.0,30.12,East,83,6.0,7.0,29,0.00,,,0.00,weatherlink.com 1.10,2013-04-28 20:27:00,
2013-04-28 16:42:00,67.3,34.0,30.13,East,98,2.0,9.0,29,0.00,,,0.00,weatherlink.com 1.10,2013-04-28 20:42:00,
2013-04-28 16:57:00,66.9,34.0,30.12,SE,143,1.0,10.0,29,0.00,,,0.00,weatherlink.com 1.10,2013-04-28 20:57:00,
2013-04-28 17:12:00,66.6,33.0,30.12,SSW,210,3.0,8.0,29,0.00,,,0.00,weatherlink.com 1.10,2013-04-28 21:12:00,
2013-04-28 17:27:00,66.4,33.0,30.11,South,188,3.0,10.0,29,0.00,,,0.00,weatherlink.com 1.10,2013-04-28 21:27:00,
2013-04-28 17:42:00,65.9,34.0,30.11,SSE,157,6.0,9.0,30,0.00,,,0.00,weatherlink.com 1.10,2013-04-28 21:42:00,
2013-04-28 17:57:00,65.3,35.0,30.11,ESE,119,2.0,9.0,32,0.00,,,0.00,weatherlink.com 1.10,2013-04-28 21:57:00,
2013-04-28 18:12:00,65.0,36.0,30.11,South,174,1.0,6.0,34,0.00,,,0.00,weatherlink.com 1.10,2013-04-28 22:12:00,
2013-04-28 18:27:00,64.3,38.0,30.10,South,191,4.0,8.0,38,0.00,,,0.00,weatherlink.com 1.10,2013-04-28 22:27:00,
2013-04-28 18:42:00,63.6,39.0,30.09,ESE,102,2.0,7.0,40,0.00,,,0.00,weatherlink.com 1.10,2013-04-28 22:42:00,
2013-04-28 18:57:00,62.9,39.0,30.10,SSE,156,3.0,9.0,41,0.00,,,0.00,weatherlink.com 1.10,2013-04-28 22:57:00,
2013-04-28 19:12:00,62.2,39.0,30.10,WSW,246,0.0,7.0,43,0.00,,,0.00,weatherlink.com 1.10,2013-04-28 23:12:00,
2013-04-28 19:27:00,61.5,39.0,30.10,SE,144,0.0,6.0,44,0.00,,,0.00,weatherlink.com 1.10,2013-04-28 23:27:00,
2013-04-28 19:42:00,60.4,38.0,30.10,ESE,120,5.0,11.0,44,0.00,,,0.00,weatherlink.com 1.10,2013-04-28 23:42:00,
2013-04-28 19:57:00,59.6,37.0,30.11,SSW,202,2.0,12.0,44,0.00,,,0.00,weatherlink.com 1.10,2013-04-28 23:57:00,
2013-04-28 20:12:00,58.9,36.0,30.11,SE,146,4.0,13.0,43,0.00,,,0.00,weatherlink.com 1.10,2013-04-29 00:12:00,
2013-04-28 20:27:00,58.4,35.0,30.11,ESE,106,2.0,8.0,42,0.00,,,0.00,weatherlink.com 1.10,2013-04-29 00:27:00,
2013-04-28 20:42:00,58.0,35.0,30.12,ESE,114,5.0,9.0,43,0.00,,,0.00,weatherlink.com 1.10,2013-04-29 00:42:00,
2013-04-28 20:57:00,57.4,34.0,30.12,SE,143,2.0,7.0,42,0.00,,,0.00,weatherlink.com 1.10,2013-04-29 00:57:00,
2013-04-28 21:12:00,56.8,34.0,30.12,NNE,21,6.0,11.0,43,0.00,,,0.00,weatherlink.com 1.10,2013-04-29 01:12:00,
2013-04-28 21:27:00,56.2,34.0,30.13,SSE,151,1.0,11.0,43,0.00,,,0.00,weatherlink.com 1.10,2013-04-29 01:27:00,
2013-04-28 21:42:00,55.9,33.0,30.13,East,79,1.0,5.0,43,0.00,,,0.00,weatherlink.com 1.10,2013-04-29 01:42:00,
2013-04-28 21:57:00,55.5,34.0,30.12,ESE,104,1.0,6.0,44,0.00,,,0.00,weatherlink.com 1.10,2013-04-29 01:57:00,
2013-04-28 22:12:00,55.3,34.0,30.12,ESE,103,1.0,8.0,44,0.00,,,0.00,weatherlink.com 1.10,2013-04-29 02:12:00,
2013-04-28 22:27:00,55.3,34.0,30.13,East,94,6.0,11.0,44,0.00,,,0.00,weatherlink.com 1.10,2013-04-29 02:27:00,
2013-04-28 22:42:00,55.3,34.0,30.13,East,97,6.0,9.0,45,0.00,,,0.00,weatherlink.com 1.10,2013-04-29 02:42:00,
2013-04-28 22:57:00,55.2,33.0,30.14,East,98,5.0,7.0,44,0.00,,,0.00,weatherlink.com 1.10,2013-04-29 02:57:00,
2013-04-28 23:12:00,55.0,34.0,30.14,East,86,3.0,9.0,45,0.00,,,0.00,weatherlink.com 1.10,2013-04-29 03:12:00,
2013-04-28 23:27:00,54.7,34.0,30.14,ENE,57,3.0,7.0,45,0.00,,,0.00,weatherlink.com 1.10,2013-04-29 03:27:00,
2013-04-28 23:42:00,54.4,33.0,30.14,ENE,78,3.0,5.0,45,0.00,,,0.00,weatherlink.com 1.10,2013-04-29 03:42:00,
2013-04-28 23:57:00,54.3,33.0,30.13,NE,53,3.0,6.0,45,0.00,,,0.00,weatherlink.com 1.10,2013-04-29 03:57:00,